User: anonymous   Login
Location: PSU-Greenbush Astrophysical Observatory
(37.5140°N, 94.9880°W)
Time: 15:05:18
(UTC-06:00)
Language:

Oscar 19 - Orbit

View from above orbital plane
View from above orbital plane
View from above satellite
View from above satellite

Ground track
Ground track

The orbit data is extracted from the following two-line orbital elements,

1 20442U 90005G   20052.41419638 -.00000020 +00000-0 +91741-5 0  9991
2 20442 098.6791 359.3543 0012480 135.6018 224.6168 14.32945175571794
Epoch (UTC): 21 February 2020 09:56:26
Eccentricity: 0.0012480
inclination: 98.6791°
perigee height: 773 km
apogee height: 791 km
right ascension of ascending node: 359.3543°
argument of perigee: 135.6018°
revolutions per day: 14.32945175
mean anomaly at epoch: 224.6168°
orbit number at epoch: 57179

The dashed part of the orbit path shows where the satellite is in the earth's shadow,  

DLR